Weather History for Palma de Mallorca, Spain

Change the Weather History Date:

Sunday, September 21, 2014

  Actual Average Record
Temperature  
Mean Temperature 78 °F -  
Max Temperature 87 °F 75 °F 87 °F (2012)
Min Temperature 70 °F 57 °F 50 °F (2000)
Cooling Degree Days 14    
Growing Degree Days 28 (Base 50)    
Moisture  
Dew Point 68 °F    
Average Humidity 70    
Maximum Humidity 88    
Minimum Humidity 47    
Precipitation  
Precipitation 0.00 in 0.08 in - ()
Sea Level Pressure  
Sea Level Pressure 30.03 in    
Wind  
Wind Speed 3 mph ()    
Max Wind Speed 14 mph    
Max Gust Speed -    
Visibility 7.2 miles    
Events      
Averages and records for this station are not official NWS values.
T = Trace of Precipitation, MM = Missing Value Source: Averaged Metar Reports

Daily Weather History Graph

Daily Weather History Graph

Search for Another Location

Airport:

Trip Planner

Search our weather history database for the weather conditions in past years. The results will help you decide how hot, cold, wet, or windy it might be!

Date:

Astronomy

Sep. 21, 2014 Rise Set
Actual Time 7:35 AM CEST 7:48 PM CEST
Civil Twilight 7:08 AM CEST 8:14 PM CEST
Nautical Twilight 6:37 AM CEST 8:46 PM CEST
Astronomical Twilight 6:05 AM CEST 9:18 PM CEST
Moon 4:55 AM CEST (9/21) 6:15 PM CEST (9/21)
Length of Visible Light 13h 06m
Length of Day
12h 12m
Waning Crescent, 7% of the Moon is Illuminated
Sep 21
Waning Crescent
Sep 24
New
Oct 1
First Quarter
Oct 8
Full
Oct 15
Last Quarter

Hourly Weather History & Observations

Time (CEST) Temp. Heat Index Dew Point Humidity Pressure Visibility Wind Dir Wind Speed Gust Speed Precip Events Conditions
12:00 AM 73 °F - 68 °F 78% 30.05 in - ENE 3.5 mph - -  
12:00 AM 73.4 °F - 66.2 °F 78% 30.04 in 6.2 mi Variable 1.2 mph - N/A   Partly Cloudy
12:30 AM 73.4 °F - 66.2 °F 78% 30.04 in 6.2 mi ENE 1.2 mph - N/A   Partly Cloudy
1:00 AM 73 °F - 69 °F 82% 30.06 in - Calm Calm - -  
1:30 AM 73.4 °F - 68.0 °F 83% 30.06 in 6.2 mi Calm Calm - N/A   Partly Cloudy
2:00 AM 71 °F - 67 °F 84% 30.07 in 9 mi ENE 2.3 mph - -   Scattered Clouds
2:00 AM 71.6 °F - 66.2 °F 83% 30.06 in 6.2 mi Calm Calm - N/A   Partly Cloudy
2:30 AM 71.6 °F - 68.0 °F 88% 30.06 in 6.2 mi Calm Calm - N/A   Partly Cloudy
3:00 AM 71 °F - 67 °F 83% 30.06 in - North 1.2 mph - -  
3:00 AM 71.6 °F - 66.2 °F 83% 30.06 in 6.2 mi NNE 1.2 mph - N/A   Partly Cloudy
3:30 AM 71.6 °F - 66.2 °F 83% 30.04 in 6.2 mi NE 2.3 mph - N/A   Partly Cloudy
4:00 AM 71 °F - 67 °F 83% 30.05 in - Calm Calm - -  
4:00 AM 71.6 °F - 66.2 °F 83% 30.04 in 6.2 mi Variable 1.2 mph - N/A   Partly Cloudy
4:30 AM 71.6 °F - 66.2 °F 83% 30.04 in 6.2 mi Calm Calm - N/A   Partly Cloudy
5:00 AM 71 °F - 67 °F 82% 30.03 in 9 mi NNE 2.3 mph - -   Scattered Clouds
5:00 AM 71.6 °F - 66.2 °F 83% 30.04 in 6.2 mi Variable 1.2 mph - N/A   Partly Cloudy
5:30 AM 71.6 °F - 66.2 °F 83% 30.01 in 6.2 mi Variable 1.2 mph - N/A   Partly Cloudy
6:00 AM 72 °F - 69 °F 85% 30.01 in - ESE 1.2 mph - -  
6:00 AM 71.6 °F - 68.0 °F 88% 30.01 in 6.2 mi Calm Calm - N/A   Partly Cloudy
6:30 AM 73.4 °F - 68.0 °F 83% 30.01 in 6.2 mi Calm Calm - N/A   Partly Cloudy
7:00 AM 72 °F - 68 °F 83% 30.01 in - NNW 3.5 mph - -  
7:30 AM 73.4 °F - 68.0 °F 83% 30.01 in 6.2 mi Calm Calm - N/A   Scattered Clouds
8:00 AM 74 °F - 68 °F 76% 30.02 in 12 mi East 2.3 mph - -   Scattered Clouds
8:00 AM 75.2 °F - 68.0 °F 78% 30.01 in 6.2 mi Variable 1.2 mph - N/A   Partly Cloudy
8:30 AM 75.2 °F - 68.0 °F 78% 30.04 in 6.2 mi North 3.5 mph - N/A   Partly Cloudy
9:00 AM 76 °F - 69 °F 72% 30.04 in - East 2.3 mph - -  
9:30 AM 78.8 °F - 69.8 °F 74% 30.04 in 6.2 mi Variable 1.2 mph - N/A   Partly Cloudy
10:00 AM 81 °F - 69 °F 59% 30.06 in - South 3.5 mph - -  
10:00 AM 80.6 °F 83.2 °F 68.0 °F 65% 30.04 in 6.2 mi Variable 2.3 mph - N/A   Partly Cloudy
10:30 AM 82.4 °F 86.3 °F 69.8 °F 66% 30.06 in 6.2 mi Variable 1.2 mph - N/A   Partly Cloudy
11:00 AM 83 °F - 73 °F 65% 30.07 in 16 mi WSW 5.8 mph - -   Overcast
11:00 AM 82.4 °F 87.2 °F 71.6 °F 70% 30.06 in 6.2 mi SSW 2.3 mph - N/A   Partly Cloudy
11:30 AM 82.4 °F 87.2 °F 71.6 °F 70% 30.06 in 6.2 mi West 6.9 mph - N/A   Partly Cloudy
12:00 PM 83 °F - 73 °F 64% 30.07 in - SW 4.6 mph - -  
12:00 PM 82.4 °F 87.2 °F 71.6 °F 70% 30.06 in 6.2 mi SW 6.9 mph - N/A   Partly Cloudy
12:30 PM 84.2 °F 89.6 °F 71.6 °F 66% 30.06 in 6.2 mi Calm Calm - N/A   Partly Cloudy
1:00 PM 84 °F - 72 °F 59% 30.05 in - WSW 3.5 mph - -  
1:00 PM 82.4 °F 87.2 °F 71.6 °F 70% 30.04 in 6.2 mi WSW 3.5 mph - N/A   Partly Cloudy
1:30 PM 84.2 °F 88.4 °F 69.8 °F 62% 30.04 in 6.2 mi SW 1.2 mph - N/A   Partly Cloudy
2:00 PM 87 °F - 71 °F 51% 30.05 in 12 mi SW 10.4 mph - -   Scattered Clouds
2:00 PM 84.2 °F 89.6 °F 71.6 °F 66% 30.04 in 6.2 mi SW 9.2 mph - N/A   Partly Cloudy
2:30 PM 84.2 °F 89.6 °F 71.6 °F 66% 30.04 in 6.2 mi SW 12.7 mph - N/A   Partly Cloudy
3:00 PM 85 °F - 70 °F 52% 30.04 in - WSW 13.8 mph - -  
3:00 PM 84.2 °F 88.4 °F 69.8 °F 62% 30.04 in 6.2 mi SW 11.5 mph - N/A   Partly Cloudy
3:30 PM 84.2 °F 86.6 °F 66.2 °F 55% 30.04 in 6.2 mi WSW 12.7 mph - N/A   Partly Cloudy
4:00 PM 84 °F - 70 °F 54% 30.03 in - SW 13.8 mph - -  
4:00 PM 82.4 °F 86.3 °F 69.8 °F 66% 30.04 in 6.2 mi WSW 12.7 mph - N/A   Partly Cloudy
4:30 PM 82.4 °F 86.3 °F 69.8 °F 66% 30.01 in 6.2 mi SW 8.1 mph - N/A   Partly Cloudy
5:00 PM 84 °F - 68 °F 49% 30.02 in 12 mi SSW 8.1 mph - -   Overcast
5:00 PM 84.2 °F 87.3 °F 68.0 °F 58% 30.01 in 6.2 mi SSW 5.8 mph - N/A   Partly Cloudy
5:30 PM 82.4 °F 84.6 °F 66.2 °F 58% 30.01 in 6.2 mi Variable 2.3 mph - N/A   Partly Cloudy
6:00 PM 83 °F - 66 °F 47% 30.02 in - South 3.5 mph - -  
6:00 PM 82.4 °F 84.6 °F 66.2 °F 58% 30.01 in 6.2 mi Variable 1.2 mph - N/A   Partly Cloudy
6:30 PM 84.2 °F 85.6 °F 64.4 °F 51% 30.01 in 6.2 mi Calm Calm - N/A   Partly Cloudy
7:00 PM 83 °F - 67 °F 49% 30.01 in - WSW 6.9 mph - -  
7:30 PM 80.6 °F 82.3 °F 64.4 °F 58% 29.98 in - SW 3.5 mph - N/A   Clear
8:00 PM 80 °F - 68 °F 58% 30.00 in 12 mi SW 5.8 mph - -   Clear
8:00 PM 80.6 °F 83.2 °F 68.0 °F 65% 30.01 in - SSW 3.5 mph - N/A   Clear
8:30 PM 80.6 °F 82.7 °F 66.2 °F 61% 30.01 in - SW 1.2 mph - N/A   Clear
9:00 PM 77 °F - 67 °F 65% 30.01 in - Calm Calm - -  
9:00 PM 77.0 °F - 68.0 °F 74% 30.01 in - Calm Calm - N/A   Clear
9:30 PM 77.0 °F - 66.2 °F 69% 30.01 in - Calm Calm - N/A   Clear
10:00 PM 76 °F - 67 °F 68% 30.02 in - East 1.2 mph - -  
10:00 PM 78.8 °F - 68.0 °F 69% 30.01 in - SSE 2.3 mph - N/A   Clear
10:30 PM 75.2 °F - 66.2 °F 73% 30.01 in - Calm Calm - N/A   Clear
11:00 PM 74 °F - 66 °F 71% 30.03 in 11 mi Calm Calm - -   Scattered Clouds
11:00 PM 75.2 °F - 66.2 °F 73% 30.01 in - Calm Calm - N/A   Clear
11:30 PM 73.4 °F - 64.4 °F 73% 30.01 in - Calm Calm - N/A   Clear